owner,sensor,date,latitude,longitude,vertical_datum,wind_speed,wind_to_direction,wind_speed_of_gust,qcFlag 
TCOON,ioos:station:TCOON:146:1,2016-10-01T00:30:00Z,28.1324,-97.0345,0.0,3.1,98.0,3.8,'1111122,1111122,1111122' 
TCOON,ioos:station:TCOON:146:1,2016-10-01T01:30:00Z,28.1324,-97.0345,0.0,3.1,122.0,3.9,'1111122,1111122,1111122' 
TCOON,ioos:station:TCOON:146:1,2016-10-01T02:30:00Z,28.1324,-97.0345,0.0,3.0,133.0,3.7,'1111122,1111122,1111122' 
TCOON,ioos:station:TCOON:146:1,2016-10-01T03:30:00Z,28.1324,-97.0345,0.0,1.8,143.0,2.3,'1111122,1111122,1111122' 
TCOON,ioos:station:TCOON:146:1,2016-10-01T04:30:00Z,28.1324,-97.0345,0.0,2.4,143.0,3.0,'1111122,1111122,1111122' 
TCOON,ioos:station:TCOON:146:1,2016-10-01T05:30:00Z,28.1324,-97.0345,0.0,2.9,156.0,3.4,'1111122,1111122,1111122' 
TCOON,ioos:station:TCOON:146:1,2016-10-01T06:30:00Z,28.1324,-97.0345,0.0,2.3,126.0,2.7,'1111122,1111122,1111122' 
TCOON,ioos:station:TCOON:146:1,2016-10-01T07:30:00Z,28.1324,-97.0345,0.0,2.8,77.0,3.2,'1111122,1111122,1111122' 
TCOON,ioos:station:TCOON:146:1,2016-10-01T08:30:00Z,28.1324,-97.0345,0.0,3.5,89.0,4.1,'1111122,1111122,1111122' 
TCOON,ioos:station:TCOON:146:1,2016-10-01T09:30:00Z,28.1324,-97.0345,0.0,3.5,94.0,3.9,'1111122,1111122,1111122' 
TCOON,ioos:station:TCOON:146:1,2016-10-01T10:30:00Z,28.1324,-97.0345,0.0,3.9,89.0,4.8,'1111122,1111122,1111122' 
TCOON,ioos:station:TCOON:146:1,2016-10-01T11:30:00Z,28.1324,-97.0345,0.0,3.3,97.0,3.8,'1111122,1111122,1111122' 
TCOON,ioos:station:TCOON:146:1,2016-10-01T12:30:00Z,28.1324,-97.0345,0.0,3.3,104.0,3.7,'1111122,1111122,1111122' 
TCOON,ioos:station:TCOON:146:1,2016-10-01T13:30:00Z,28.1324,-97.0345,0.0,3.1,99.0,3.5,'1111122,1111122,1111122' 
TCOON,ioos:station:TCOON:146:1,2016-10-01T14:30:00Z,28.1324,-97.0345,0.0,3.0,103.0,3.7,'1111122,1111122,1111122' 
TCOON,ioos:station:TCOON:146:1,2016-10-01T15:30:00Z,28.1324,-97.0345,0.0,3.3,98.0,3.9,'1111122,1111122,1111122' 
TCOON,ioos:station:TCOON:146:1,2016-10-01T16:30:00Z,28.1324,-97.0345,0.0,1.5,143.0,2.5,'1111122,1111122,1111122' 
TCOON,ioos:station:TCOON:146:1,2016-10-01T17:30:00Z,28.1324,-97.0345,0.0,2.4,201.0,3.3,'1111122,1111122,1111122' 
TCOON,ioos:station:TCOON:146:1,2016-10-01T18:30:00Z,28.1324,-97.0345,0.0,3.0,199.0,3.7,'1111122,1111122,1111122' 
TCOON,ioos:station:TCOON:146:1,2016-10-01T19:30:00Z,28.1324,-97.0345,0.0,2.7,184.0,3.7,'1111122,1111122,1111122' 
TCOON,ioos:station:TCOON:146:1,2016-10-01T20:30:00Z,28.1324,-97.0345,0.0,3.0,171.0,3.7,'1111122,1111122,1111122' 
TCOON,ioos:station:TCOON:146:1,2016-10-01T21:30:00Z,28.1324,-97.0345,0.0,2.8,177.0,3.6,'1111122,1111122,1111122' 
TCOON,ioos:station:TCOON:146:1,2016-10-01T22:30:00Z,28.1324,-97.0345,0.0,2.7,170.0,3.5,'1111122,1111122,1111122' 
TCOON,ioos:station:TCOON:146:1,2016-10-01T23:30:00Z,28.1324,-97.0345,0.0,3.0,160.0,3.6,'1111122,1111122,1111122' 
TCOON,ioos:station:TCOON:146:1,2016-10-02T01:30:00Z,28.1324,-97.0345,0.0,2.4,147.0,3.2,'1111122,1111122,1111122' 
TCOON,ioos:station:TCOON:146:1,2016-10-02T02:30:00Z,28.1324,-97.0345,0.0,2.9,119.0,3.6,'1111122,1111122,1111122' 
TCOON,ioos:station:TCOON:146:1,2016-10-02T03:30:00Z,28.1324,-97.0345,0.0,3.0,106.0,3.4,'1111122,1111122,1111122' 
TCOON,ioos:station:TCOON:146:1,2016-10-02T04:30:00Z,28.1324,-97.0345,0.0,2.5,123.0,3.2,'1111122,1111122,1111122' 
TCOON,ioos:station:TCOON:146:1,2016-10-02T05:30:00Z,28.1324,-97.0345,0.0,3.1,86.0,3.4,'1111122,1111122,1111122' 
TCOON,ioos:station:TCOON:146:1,2016-10-02T06:30:00Z,28.1324,-97.0345,0.0,3.4,93.0,3.8,'1111122,1111122,1111122' 
TCOON,ioos:station:TCOON:146:1,2016-10-02T07:30:00Z,28.1324,-97.0345,0.0,3.2,95.0,3.9,'1111122,1111122,1111122' 
TCOON,ioos:station:TCOON:146:1,2016-10-02T08:30:00Z,28.1324,-97.0345,0.0,3.0,93.0,3.7,'1111122,1111122,1111122' 
TCOON,ioos:station:TCOON:146:1,2016-10-02T09:30:00Z,28.1324,-97.0345,0.0,3.1,97.0,3.7,'1111122,1111122,1111122' 
TCOON,ioos:station:TCOON:146:1,2016-10-02T10:30:00Z,28.1324,-97.0345,0.0,3.7,88.0,4.3,'1111122,1111122,1111122' 
TCOON,ioos:station:TCOON:146:1,2016-10-02T11:30:00Z,28.1324,-97.0345,0.0,3.7,89.0,4.5,'1111122,1111122,1111122' 
TCOON,ioos:station:TCOON:146:1,2016-10-02T12:30:00Z,28.1324,-97.0345,0.0,3.8,85.0,4.7,'1111122,1111122,1111122' 
TCOON,ioos:station:TCOON:146:1,2016-10-03T19:30:00Z,28.1324,-97.0345,0.0,3.8,173.0,4.9,'1111122,1111122,1111122' 
TCOON,ioos:station:TCOON:146:1,2016-10-04T15:30:00Z,28.1324,-97.0345,0.0,2.1,203.0,2.7,'1111122,1111122,1111122' 
TCOON,ioos:station:TCOON:146:1,2016-10-04T16:30:00Z,28.1324,-97.0345,0.0,2.6,208.0,3.3,'1111122,1111122,1111122' 
TCOON,ioos:station:TCOON:146:1,2016-10-04T18:30:00Z,28.1324,-97.0345,0.0,2.2,200.0,2.8,'1111122,1111122,1111122' 
TCOON,ioos:station:TCOON:146:1,2016-10-04T19:30:00Z,28.1324,-97.0345,0.0,2.9,201.0,3.5,'1111122,1111122,1111122' 
TCOON,ioos:station:TCOON:146:1,2016-10-04T20:30:00Z,28.1324,-97.0345,0.0,2.9,201.0,3.8,'1111122,1111122,1111122' 
TCOON,ioos:station:TCOON:146:1,2016-10-04T21:30:00Z,28.1324,-97.0345,0.0,3.8,202.0,4.7,'1111122,1111122,1111122' 
TCOON,ioos:station:TCOON:146:1,2016-10-04T22:30:00Z,28.1324,-97.0345,0.0,3.4,200.0,4.2,'1111122,1111122,1111122' 
TCOON,ioos:station:TCOON:146:1,2016-10-04T23:30:00Z,28.1324,-97.0345,0.0,3.1,201.0,3.6,'1111122,1111122,1111122' 
TCOON,ioos:station:TCOON:146:1,2016-10-05T00:30:00Z,28.1324,-97.0345,0.0,2.9,202.0,3.6,'1111122,1111122,1111122' 
TCOON,ioos:station:TCOON:146:1,2016-10-05T01:30:00Z,28.1324,-97.0345,0.0,2.8,198.0,3.4,'1111122,1111122,1111122' 
TCOON,ioos:station:TCOON:146:1,2016-10-05T02:30:00Z,28.1324,-97.0345,0.0,2.8,198.0,3.4,'1111122,1111122,1111122' 
TCOON,ioos:station:TCOON:146:1,2016-10-05T03:30:00Z,28.1324,-97.0345,0.0,3.0,206.0,3.7,'1111122,1111122,1111122' 
TCOON,ioos:station:TCOON:146:1,2016-10-05T04:30:00Z,28.1324,-97.0345,0.0,3.4,208.0,4.1,'1111122,1111122,1111122' 
TCOON,ioos:station:TCOON:146:1,2016-10-05T05:30:00Z,28.1324,-97.0345,0.0,3.6,215.0,4.3,'1111122,1111122,1111122' 
TCOON,ioos:station:TCOON:146:1,2016-10-05T06:30:00Z,28.1324,-97.0345,0.0,3.2,220.0,3.7,'1111122,1111122,1111122' 
TCOON,ioos:station:TCOON:146:1,2016-10-05T07:30:00Z,28.1324,-97.0345,0.0,3.2,224.0,3.8,'1111122,1111122,1111122' 
TCOON,ioos:station:TCOON:146:1,2016-10-05T08:30:00Z,28.1324,-97.0345,0.0,3.2,225.0,3.9,'1111122,1111122,1111122' 
TCOON,ioos:station:TCOON:146:1,2016-10-05T09:30:00Z,28.1324,-97.0345,0.0,2.1,255.0,3.0,'1111122,1111122,1111122' 
TCOON,ioos:station:TCOON:146:1,2016-10-05T10:30:00Z,28.1324,-97.0345,0.0,1.9,284.0,2.3,'1111122,1111122,1111122' 
TCOON,ioos:station:TCOON:146:1,2016-10-05T11:30:00Z,28.1324,-97.0345,0.0,2.7,224.0,3.4,'1111122,1111122,1111122' 
TCOON,ioos:station:TCOON:146:1,2016-10-05T12:30:00Z,28.1324,-97.0345,0.0,1.1,251.0,1.8,'1111122,1111122,1111122' 
TCOON,ioos:station:TCOON:146:1,2016-10-05T13:30:00Z,28.1324,-97.0345,0.0,2.5,166.0,2.9,'1111122,1111122,1111122' 
TCOON,ioos:station:TCOON:146:1,2016-10-05T14:30:00Z,28.1324,-97.0345,0.0,1.7,210.0,2.3,'1111122,1111122,1111122' 
TCOON,ioos:station:TCOON:146:1,2016-10-05T15:30:00Z,28.1324,-97.0345,0.0,2.0,208.0,2.5,'1111122,1111122,1111122' 
TCOON,ioos:station:TCOON:146:1,2016-10-05T16:30:00Z,28.1324,-97.0345,0.0,3.3,220.0,3.9,'1111122,1111122,1111122' 
TCOON,ioos:station:TCOON:146:1,2016-10-05T17:30:00Z,28.1324,-97.0345,0.0,3.2,212.0,4.0,'1111122,1111122,1111122' 
TCOON,ioos:station:TCOON:146:1,2016-10-05T18:30:00Z,28.1324,-97.0345,0.0,3.0,213.0,3.5,'1111122,1111122,1111122' 
TCOON,ioos:station:TCOON:146:1,2016-10-05T19:30:00Z,28.1324,-97.0345,0.0,2.4,194.0,3.1,'1111122,1111122,1111122' 
TCOON,ioos:station:TCOON:146:1,2016-10-05T20:30:00Z,28.1324,-97.0345,0.0,2.8,196.0,3.4,'1111122,1111122,1111122' 
TCOON,ioos:station:TCOON:146:1,2016-10-05T21:30:00Z,28.1324,-97.0345,0.0,3.1,197.0,3.8,'1111122,1111122,1111122' 
TCOON,ioos:station:TCOON:146:1,2016-10-05T22:30:00Z,28.1324,-97.0345,0.0,4.3,183.0,5.3,'1111122,1111122,1111122' 
TCOON,ioos:station:TCOON:146:1,2016-10-05T23:30:00Z,28.1324,-97.0345,0.0,4.2,184.0,5.1,'1111122,1111122,1111122' 
TCOON,ioos:station:TCOON:146:1,2016-10-06T00:30:00Z,28.1324,-97.0345,0.0,3.8,188.0,4.6,'1111122,1111122,1111122' 
TCOON,ioos:station:TCOON:146:1,2016-10-06T01:30:00Z,28.1324,-97.0345,0.0,3.5,190.0,4.6,'1111122,1111122,1111122' 
TCOON,ioos:station:TCOON:146:1,2016-10-06T02:30:00Z,28.1324,-97.0345,0.0,4.5,181.0,5.3,'1111122,1111122,1111122' 
TCOON,ioos:station:TCOON:146:1,2016-10-06T03:30:00Z,28.1324,-97.0345,0.0,4.5,184.0,5.6,'1111122,1111122,1111122' 
TCOON,ioos:station:TCOON:146:1,2016-10-06T04:30:00Z,28.1324,-97.0345,0.0,4.0,188.0,5.1,'1111122,1111122,1111122' 
TCOON,ioos:station:TCOON:146:1,2016-10-06T05:30:00Z,28.1324,-97.0345,0.0,3.5,189.0,4.4,'1111122,1111122,1111122' 
TCOON,ioos:station:TCOON:146:1,2016-10-06T06:30:00Z,28.1324,-97.0345,0.0,3.0,196.0,3.7,'1111122,1111122,1111122' 
TCOON,ioos:station:TCOON:146:1,2016-10-06T07:30:00Z,28.1324,-97.0345,0.0,3.0,200.0,4.1,'1111122,1111122,1111122' 
TCOON,ioos:station:TCOON:146:1,2016-10-06T08:30:00Z,28.1324,-97.0345,0.0,3.0,201.0,3.7,'1111122,1111122,1111122' 
TCOON,ioos:station:TCOON:146:1,2016-10-06T09:30:00Z,28.1324,-97.0345,0.0,3.1,203.0,3.6,'1111122,1111122,1111122' 
TCOON,ioos:station:TCOON:146:1,2016-10-06T10:30:00Z,28.1324,-97.0345,0.0,2.9,198.0,3.4,'1111122,1111122,1111122' 
TCOON,ioos:station:TCOON:146:1,2016-10-06T11:30:00Z,28.1324,-97.0345,0.0,2.6,201.0,3.3,'1111122,1111122,1111122' 
TCOON,ioos:station:TCOON:146:1,2016-10-06T12:30:00Z,28.1324,-97.0345,0.0,1.9,203.0,2.5,'1111122,1111122,1111122' 
TCOON,ioos:station:TCOON:146:1,2016-10-06T13:30:00Z,28.1324,-97.0345,0.0,1.5,90.0,2.4,'1111122,1111122,1111122' 
TCOON,ioos:station:TCOON:146:1,2016-10-06T14:30:00Z,28.1324,-97.0345,0.0,2.0,139.0,2.5,'1111122,1111122,1111122' 
TCOON,ioos:station:TCOON:146:1,2016-10-06T18:30:00Z,28.1324,-97.0345,0.0,3.3,208.0,3.8,'1111122,1111122,1111122' 
TCOON,ioos:station:TCOON:146:1,2016-10-06T19:30:00Z,28.1324,-97.0345,0.0,3.3,190.0,4.2,'1111122,1111122,1111122' 
TCOON,ioos:station:TCOON:146:1,2016-10-06T20:30:00Z,28.1324,-97.0345,0.0,3.1,197.0,3.8,'1111122,1111122,1111122' 
TCOON,ioos:station:TCOON:146:1,2016-10-06T21:30:00Z,28.1324,-97.0345,0.0,3.8,190.0,4.7,'1111122,1111122,1111122' 
TCOON,ioos:station:TCOON:146:1,2016-10-06T22:30:00Z,28.1324,-97.0345,0.0,3.5,198.0,4.4,'1111122,1111122,1111122' 
TCOON,ioos:station:TCOON:146:1,2016-10-06T23:30:00Z,28.1324,-97.0345,0.0,4.2,181.0,5.1,'1111122,1111122,1111122' 
TCOON,ioos:station:TCOON:146:1,2016-10-07T00:30:00Z,28.1324,-97.0345,0.0,4.7,171.0,5.3,'1111122,1111122,1111122' 
TCOON,ioos:station:TCOON:146:1,2016-10-07T01:30:00Z,28.1324,-97.0345,0.0,4.8,173.0,5.6,'1111122,1111122,1111122' 
TCOON,ioos:station:TCOON:146:1,2016-10-07T02:30:00Z,28.1324,-97.0345,0.0,4.9,175.0,6.2,'1111122,1111122,1111122' 
TCOON,ioos:station:TCOON:146:1,2016-10-07T03:30:00Z,28.1324,-97.0345,0.0,4.9,185.0,6.0,'1111122,1111122,1111122' 
TCOON,ioos:station:TCOON:146:1,2016-10-07T04:30:00Z,28.1324,-97.0345,0.0,4.2,185.0,5.4,'1111122,1111122,1111122' 
TCOON,ioos:station:TCOON:146:1,2016-10-07T05:30:00Z,28.1324,-97.0345,0.0,3.2,185.0,4.0,'1111122,1111122,1111122' 
TCOON,ioos:station:TCOON:146:1,2016-10-07T06:30:00Z,28.1324,-97.0345,0.0,3.3,188.0,4.7,'1111122,1111122,1111122' 
TCOON,ioos:station:TCOON:146:1,2016-10-07T07:30:00Z,28.1324,-97.0345,0.0,2.9,187.0,3.5,'1111122,1111122,1111122' 
TCOON,ioos:station:TCOON:146:1,2016-10-07T08:30:00Z,28.1324,-97.0345,0.0,3.1,197.0,3.6,'1111122,1111122,1111122' 
TCOON,ioos:station:TCOON:146:1,2016-10-07T09:30:00Z,28.1324,-97.0345,0.0,2.5,214.0,3.6,'1111122,1111122,1111122' 
TCOON,ioos:station:TCOON:146:1,2016-10-08T17:30:00Z,28.1324,-97.0345,0.0,4.2,104.0,5.4,'1111122,1111122,1111122' 
TCOON,ioos:station:TCOON:146:1,2016-10-08T23:30:00Z,28.1324,-97.0345,0.0,3.6,84.0,4.1,'1111122,1111122,1111122' 
TCOON,ioos:station:TCOON:146:1,2016-10-09T06:30:00Z,28.1324,-97.0345,0.0,3.9,82.0,4.5,'1111122,1111122,1111122' 
TCOON,ioos:station:TCOON:146:1,2016-10-09T10:30:00Z,28.1324,-97.0345,0.0,4.4,92.0,5.2,'1111122,1111122,1111122' 
TCOON,ioos:station:TCOON:146:1,2016-10-09T16:30:00Z,28.1324,-97.0345,0.0,3.1,131.0,3.8,'1111122,1111122,1111122' 
TCOON,ioos:station:TCOON:146:1,2016-10-10T03:30:00Z,28.1324,-97.0345,0.0,3.0,141.0,3.6,'1111122,1111122,1111122' 
TCOON,ioos:station:TCOON:146:1,2016-10-10T04:30:00Z,28.1324,-97.0345,0.0,2.4,132.0,2.9,'1111122,1111122,1111122' 
TCOON,ioos:station:TCOON:146:1,2016-10-10T13:30:00Z,28.1324,-97.0345,0.0,3.4,86.0,3.9,'1111122,1111122,1111122' 
TCOON,ioos:station:TCOON:146:1,2016-10-10T19:30:00Z,28.1324,-97.0345,0.0,3.1,206.0,3.7,'1111122,1111122,1111122' 
TCOON,ioos:station:TCOON:146:1,2016-10-10T21:30:00Z,28.1324,-97.0345,0.0,3.0,198.0,3.4,'1111122,1111122,1111122' 
TCOON,ioos:station:TCOON:146:1,2016-10-11T00:30:00Z,28.1324,-97.0345,0.0,2.9,182.0,3.3,'1111122,1111122,1111122' 
TCOON,ioos:station:TCOON:146:1,2016-10-11T02:30:00Z,28.1324,-97.0345,0.0,3.1,168.0,3.7,'1111122,1111122,1111122' 
TCOON,ioos:station:TCOON:146:1,2016-10-11T07:30:00Z,28.1324,-97.0345,0.0,1.7,50.0,2.6,'1111122,1111122,1111122' 
TCOON,ioos:station:TCOON:146:1,2016-10-11T13:30:00Z,28.1324,-97.0345,0.0,3.1,96.0,3.7,'1111122,1111122,1111122' 
TCOON,ioos:station:TCOON:146:1,2016-10-12T00:30:00Z,28.1324,-97.0345,0.0,2.7,196.0,3.3,'1111122,1111122,1111122' 
TCOON,ioos:station:TCOON:146:1,2016-10-12T05:30:00Z,28.1324,-97.0345,0.0,2.9,171.0,3.4,'1111122,1111122,1111122' 
TCOON,ioos:station:TCOON:146:1,2016-10-12T06:30:00Z,28.1324,-97.0345,0.0,2.8,169.0,3.2,'1111122,1111122,1111122' 
TCOON,ioos:station:TCOON:146:1,2016-10-12T09:30:00Z,28.1324,-97.0345,0.0,2.3,234.0,2.7,'1111122,1111122,1111122' 
TCOON,ioos:station:TCOON:146:1,2016-10-13T04:30:00Z,28.1324,-97.0345,0.0,4.6,213.0,5.6,'1111122,1111122,1111122' 
TCOON,ioos:station:TCOON:146:1,2016-10-13T05:30:00Z,28.1324,-97.0345,0.0,4.4,222.0,5.1,'1111122,1111122,1111122' 
TCOON,ioos:station:TCOON:146:1,2016-10-13T14:30:00Z,28.1324,-97.0345,0.0,2.2,105.0,2.6,'1111122,1111122,1111122' 
TCOON,ioos:station:TCOON:146:1,2016-10-13T18:30:00Z,28.1324,-97.0345,0.0,3.5,197.0,4.3,'1111122,1111122,1111122' 
TCOON,ioos:station:TCOON:146:1,2016-10-13T21:30:00Z,28.1324,-97.0345,0.0,3.8,192.0,4.8,'1111122,1111122,1111122' 
TCOON,ioos:station:TCOON:146:1,2016-10-13T22:30:00Z,28.1324,-97.0345,0.0,4.0,187.0,5.2,'1111122,1111122,1111122' 
TCOON,ioos:station:TCOON:146:1,2016-10-13T23:30:00Z,28.1324,-97.0345,0.0,4.2,187.0,5.2,'1111122,1111122,1111122' 
TCOON,ioos:station:TCOON:146:1,2016-10-14T02:30:00Z,28.1324,-97.0345,0.0,4.1,197.0,5.4,'1111122,1111122,1111122' 
TCOON,ioos:station:TCOON:146:1,2016-10-14T13:30:00Z,28.1324,-97.0345,0.0,2.1,133.0,3.3,'1111122,1111122,1111122' 
TCOON,ioos:station:TCOON:146:1,2016-10-14T15:30:00Z,28.1324,-97.0345,0.0,3.0,209.0,3.7,'1111122,1111122,1111122' 
TCOON,ioos:station:TCOON:146:1,2016-10-14T16:30:00Z,28.1324,-97.0345,0.0,3.0,192.0,3.5,'1111122,1111122,1111122' 
TCOON,ioos:station:TCOON:146:1,2016-10-14T23:30:00Z,28.1324,-97.0345,0.0,4.0,207.0,4.7,'1111122,1111122,1111122' 
TCOON,ioos:station:TCOON:146:1,2016-10-15T00:30:00Z,28.1324,-97.0345,0.0,3.6,204.0,4.5,'1111122,1111122,1111122' 
TCOON,ioos:station:TCOON:146:1,2016-10-15T02:30:00Z,28.1324,-97.0345,0.0,4.2,197.0,5.3,'1111122,1111122,1111122' 
TCOON,ioos:station:TCOON:146:1,2016-10-15T03:30:00Z,28.1324,-97.0345,0.0,3.9,194.0,4.7,'1111122,1111122,1111122' 
TCOON,ioos:station:TCOON:146:1,2016-10-15T04:30:00Z,28.1324,-97.0345,0.0,4.5,203.0,5.8,'1111122,1111122,1111122' 
TCOON,ioos:station:TCOON:146:1,2016-10-15T07:30:00Z,28.1324,-97.0345,0.0,3.9,205.0,4.8,'1111122,1111122,1111122' 
TCOON,ioos:station:TCOON:146:1,2016-10-15T08:30:00Z,28.1324,-97.0345,0.0,3.2,205.0,4.0,'1111122,1111122,1111122' 
TCOON,ioos:station:TCOON:146:1,2016-10-15T09:30:00Z,28.1324,-97.0345,0.0,3.3,210.0,4.0,'1111122,1111122,1111122' 
TCOON,ioos:station:TCOON:146:1,2016-10-15T11:30:00Z,28.1324,-97.0345,0.0,3.9,217.0,4.4,'1111122,1111122,1111122' 
TCOON,ioos:station:TCOON:146:1,2016-10-15T12:30:00Z,28.1324,-97.0345,0.0,3.1,209.0,3.7,'1111122,1111122,1111122' 
TCOON,ioos:station:TCOON:146:1,2016-10-15T14:30:00Z,28.1324,-97.0345,0.0,3.6,224.0,4.2,'1111122,1111122,1111122' 
TCOON,ioos:station:TCOON:146:1,2016-10-15T15:30:00Z,28.1324,-97.0345,0.0,3.4,220.0,4.1,'1111122,1111122,1111122' 
TCOON,ioos:station:TCOON:146:1,2016-10-15T20:30:00Z,28.1324,-97.0345,0.0,3.7,219.0,4.4,'1111122,1111122,1111122' 
TCOON,ioos:station:TCOON:146:1,2016-10-17T07:30:00Z,28.1324,-97.0345,0.0,5.3,224.0,6.4,'1111122,1111122,1111122' 
TCOON,ioos:station:TCOON:146:1,2016-10-22T08:30:00Z,28.1324,-97.0345,0.0,3.1,96.0,3.5,'1111122,1111122,1111122' 
TCOON,ioos:station:TCOON:146:1,2016-10-22T14:30:00Z,28.1324,-97.0345,0.0,3.1,122.0,3.8,'1111122,1111122,1111122' 
TCOON,ioos:station:TCOON:146:1,2016-10-23T17:30:00Z,28.1324,-97.0345,0.0,2.3,172.0,3.6,'1111122,1111122,1111122' 
TCOON,ioos:station:TCOON:146:1,2016-10-23T18:30:00Z,28.1324,-97.0345,0.0,3.0,197.0,3.7,'1111122,1111122,1111122' 
TCOON,ioos:station:TCOON:146:1,2016-10-24T09:30:00Z,28.1324,-97.0345,0.0,3.6,210.0,4.5,'1111122,1111122,1111122' 
TCOON,ioos:station:TCOON:146:1,2016-10-24T17:30:00Z,28.1324,-97.0345,0.0,3.1,182.0,3.8,'1111122,1111122,1111122' 
TCOON,ioos:station:TCOON:146:1,2016-10-24T19:30:00Z,28.1324,-97.0345,0.0,3.5,180.0,4.3,'1111122,1111122,1111122' 
TCOON,ioos:station:TCOON:146:1,2016-10-24T23:30:00Z,28.1324,-97.0345,0.0,3.8,172.0,4.6,'1111122,1111122,1111122' 
TCOON,ioos:station:TCOON:146:1,2016-10-25T06:30:00Z,28.1324,-97.0345,0.0,3.0,180.0,3.7,'1111122,1111122,1111122' 
TCOON,ioos:station:TCOON:146:1,2016-10-27T05:30:00Z,28.1324,-97.0345,0.0,3.3,205.0,3.7,'1111122,1111122,1111122' 
TCOON,ioos:station:TCOON:146:1,2016-10-27T07:30:00Z,28.1324,-97.0345,0.0,2.9,186.0,3.6,'1111122,1111122,1111122' 
TCOON,ioos:station:TCOON:146:1,2016-10-27T16:30:00Z,28.1324,-97.0345,0.0,2.9,100.0,3.5,'1111122,1111122,1111122' 
TCOON,ioos:station:TCOON:146:1,2016-10-27T17:30:00Z,28.1324,-97.0345,0.0,3.0,131.0,4.1,'1111122,1111122,1111122' 
TCOON,ioos:station:TCOON:146:1,2016-10-27T18:30:00Z,28.1324,-97.0345,0.0,4.1,171.0,5.0,'1111122,1111122,1111122' 
TCOON,ioos:station:TCOON:146:1,2016-10-27T19:30:00Z,28.1324,-97.0345,0.0,3.9,179.0,4.9,'1111122,1111122,1111122' 
TCOON,ioos:station:TCOON:146:1,2016-10-27T20:30:00Z,28.1324,-97.0345,0.0,3.4,168.0,4.5,'1111122,1111122,1111122' 
TCOON,ioos:station:TCOON:146:1,2016-10-27T21:30:00Z,28.1324,-97.0345,0.0,3.8,167.0,4.7,'1111122,1111122,1111122' 
TCOON,ioos:station:TCOON:146:1,2016-10-27T22:30:00Z,28.1324,-97.0345,0.0,3.9,171.0,4.6,'1111122,1111122,1111122' 
TCOON,ioos:station:TCOON:146:1,2016-10-27T23:30:00Z,28.1324,-97.0345,0.0,5.1,168.0,6.1,'1111122,1111122,1111122' 
TCOON,ioos:station:TCOON:146:1,2016-10-28T00:30:00Z,28.1324,-97.0345,0.0,4.2,167.0,4.9,'1111122,1111122,1111122' 
TCOON,ioos:station:TCOON:146:1,2016-10-28T01:30:00Z,28.1324,-97.0345,0.0,3.1,141.0,4.0,'1111122,1111122,1111122' 
TCOON,ioos:station:TCOON:146:1,2016-10-28T02:30:00Z,28.1324,-97.0345,0.0,3.6,153.0,4.3,'1111122,1111122,1111122' 
TCOON,ioos:station:TCOON:146:1,2016-10-28T03:30:00Z,28.1324,-97.0345,0.0,3.6,152.0,4.3,'1111122,1111122,1111122' 
TCOON,ioos:station:TCOON:146:1,2016-10-28T04:30:00Z,28.1324,-97.0345,0.0,2.9,151.0,3.9,'1111122,1111122,1111122' 
TCOON,ioos:station:TCOON:146:1,2016-10-28T05:30:00Z,28.1324,-97.0345,0.0,2.9,145.0,3.5,'1111122,1111122,1111122' 
TCOON,ioos:station:TCOON:146:1,2016-10-28T06:30:00Z,28.1324,-97.0345,0.0,2.5,131.0,3.0,'1111122,1111122,1111122' 
TCOON,ioos:station:TCOON:146:1,2016-10-28T07:30:00Z,28.1324,-97.0345,0.0,2.5,90.0,2.9,'1111122,1111122,1111122' 
TCOON,ioos:station:TCOON:146:1,2016-10-28T08:30:00Z,28.1324,-97.0345,0.0,3.0,88.0,3.6,'1111122,1111122,1111122' 
TCOON,ioos:station:TCOON:146:1,2016-10-28T09:30:00Z,28.1324,-97.0345,0.0,3.4,94.0,3.8,'1111122,1111122,1111122' 
TCOON,ioos:station:TCOON:146:1,2016-10-28T10:30:00Z,28.1324,-97.0345,0.0,3.3,94.0,3.7,'1111122,1111122,1111122' 
TCOON,ioos:station:TCOON:146:1,2016-10-28T11:30:00Z,28.1324,-97.0345,0.0,3.4,96.0,3.9,'1111122,1111122,1111122' 
TCOON,ioos:station:TCOON:146:1,2016-10-28T12:30:00Z,28.1324,-97.0345,0.0,3.1,101.0,3.5,'1111122,1111122,1111122' 
TCOON,ioos:station:TCOON:146:1,2016-10-28T13:30:00Z,28.1324,-97.0345,0.0,3.0,111.0,3.4,'1111122,1111122,1111122' 
TCOON,ioos:station:TCOON:146:1,2016-10-28T14:30:00Z,28.1324,-97.0345,0.0,2.8,101.0,3.4,'1111122,1111122,1111122' 
TCOON,ioos:station:TCOON:146:1,2016-10-28T15:30:00Z,28.1324,-97.0345,0.0,3.2,138.0,4.3,'1111122,1111122,1111122' 
TCOON,ioos:station:TCOON:146:1,2016-10-28T16:30:00Z,28.1324,-97.0345,0.0,3.9,150.0,4.9,'1111122,1111122,1111122' 
TCOON,ioos:station:TCOON:146:1,2016-10-28T17:30:00Z,28.1324,-97.0345,0.0,4.2,170.0,5.2,'1111122,1111122,1111122' 
TCOON,ioos:station:TCOON:146:1,2016-10-28T18:30:00Z,28.1324,-97.0345,0.0,4.1,174.0,5.1,'1111122,1111122,1111122' 
TCOON,ioos:station:TCOON:146:1,2016-10-28T19:30:00Z,28.1324,-97.0345,0.0,3.4,179.0,4.3,'1111122,1111122,1111122' 
TCOON,ioos:station:TCOON:146:1,2016-10-28T20:30:00Z,28.1324,-97.0345,0.0,3.2,173.0,3.9,'1111122,1111122,1111122' 
TCOON,ioos:station:TCOON:146:1,2016-10-28T21:30:00Z,28.1324,-97.0345,0.0,2.8,178.0,3.6,'1111122,1111122,1111122' 
TCOON,ioos:station:TCOON:146:1,2016-10-28T22:30:00Z,28.1324,-97.0345,0.0,4.5,174.0,5.2,'1111122,1111122,1111122' 
TCOON,ioos:station:TCOON:146:1,2016-10-28T23:30:00Z,28.1324,-97.0345,0.0,4.8,167.0,5.5,'1111122,1111122,1111122' 
TCOON,ioos:station:TCOON:146:1,2016-10-29T00:30:00Z,28.1324,-97.0345,0.0,4.8,165.0,5.5,'1111122,1111122,1111122' 
TCOON,ioos:station:TCOON:146:1,2016-10-29T01:30:00Z,28.1324,-97.0345,0.0,5.3,171.0,6.2,'1111122,1111122,1111122' 
TCOON,ioos:station:TCOON:146:1,2016-10-29T02:30:00Z,28.1324,-97.0345,0.0,4.7,171.0,5.7,'1111122,1111122,1111122' 
TCOON,ioos:station:TCOON:146:1,2016-10-29T03:30:00Z,28.1324,-97.0345,0.0,3.5,177.0,4.1,'1111122,1111122,1111122' 
TCOON,ioos:station:TCOON:146:1,2016-10-29T04:30:00Z,28.1324,-97.0345,0.0,3.2,180.0,3.9,'1111122,1111122,1111122' 
TCOON,ioos:station:TCOON:146:1,2016-10-29T05:30:00Z,28.1324,-97.0345,0.0,2.7,153.0,3.3,'1111122,1111122,1111122' 
TCOON,ioos:station:TCOON:146:1,2016-10-29T06:30:00Z,28.1324,-97.0345,0.0,3.0,155.0,3.5,'1111122,1111122,1111122' 
TCOON,ioos:station:TCOON:146:1,2016-10-29T07:30:00Z,28.1324,-97.0345,0.0,2.7,153.0,3.3,'1111122,1111122,1111122' 
TCOON,ioos:station:TCOON:146:1,2016-10-29T08:30:00Z,28.1324,-97.0345,0.0,2.3,133.0,2.8,'1111122,1111122,1111122' 
TCOON,ioos:station:TCOON:146:1,2016-10-29T09:30:00Z,28.1324,-97.0345,0.0,2.7,93.0,3.0,'1111122,1111122,1111122' 
TCOON,ioos:station:TCOON:146:1,2016-10-29T10:30:00Z,28.1324,-97.0345,0.0,2.8,96.0,3.6,'1111122,1111122,1111122' 
TCOON,ioos:station:TCOON:146:1,2016-10-29T11:30:00Z,28.1324,-97.0345,0.0,3.5,87.0,4.0,'1111122,1111122,1111122' 
TCOON,ioos:station:TCOON:146:1,2016-10-29T12:30:00Z,28.1324,-97.0345,0.0,3.0,90.0,4.0,'1111122,1111122,1111122' 
TCOON,ioos:station:TCOON:146:1,2016-10-29T13:30:00Z,28.1324,-97.0345,0.0,3.2,85.0,3.9,'1111122,1111122,1111122' 
TCOON,ioos:station:TCOON:146:1,2016-10-29T14:30:00Z,28.1324,-97.0345,0.0,2.9,98.0,3.7,'1111122,1111122,1111122' 
TCOON,ioos:station:TCOON:146:1,2016-10-29T15:30:00Z,28.1324,-97.0345,0.0,3.5,73.0,4.0,'1111122,1111122,1111122' 
TCOON,ioos:station:TCOON:146:1,2016-10-29T16:30:00Z,28.1324,-97.0345,0.0,1.1,103.0,1.7,'1111122,1111122,1111122' 
TCOON,ioos:station:TCOON:146:1,2016-10-29T17:30:00Z,28.1324,-97.0345,0.0,2.6,190.0,3.7,'1111122,1111122,1111122' 
TCOON,ioos:station:TCOON:146:1,2016-10-29T18:30:00Z,28.1324,-97.0345,0.0,2.3,183.0,2.8,'1111122,1111122,1111122' 
TCOON,ioos:station:TCOON:146:1,2016-10-29T19:30:00Z,28.1324,-97.0345,0.0,2.8,194.0,3.6,'1111122,1111122,1111122' 
TCOON,ioos:station:TCOON:146:1,2016-10-29T20:30:00Z,28.1324,-97.0345,0.0,2.9,196.0,3.5,'1111122,1111122,1111122' 
TCOON,ioos:station:TCOON:146:1,2016-10-29T21:30:00Z,28.1324,-97.0345,0.0,3.3,192.0,4.0,'1111122,1111122,1111122' 
TCOON,ioos:station:TCOON:146:1,2016-10-29T22:30:00Z,28.1324,-97.0345,0.0,3.3,189.0,3.9,'1111122,1111122,1111122' 